[[{"header":{"parameterUnit":"m.s-1","parameterCategory":2,"la1":30.2992,"la2":30.254,"lo1":-89.0895,"lo2":-89.0443,"dy":0.0025,"dx":0.0025,"nx":19,"ny":19,"refTime":"2026-05-19T03:00:00:Z","depth":"0","parameterNumber":2,"parameterNumberName":"U-component_of_CURRENTS"},"data":[0,0,0,0.1634,0.1635,0.1682,0.1682,0.1768,0.1769,0,0,0,0,0,0,0,0,0,0,0,0.1622,0.1623,0.1634,0.1636,0.1682,0.1682,0.1768,0.1769,0,0,0,0,0,0,0,0,0,0,0,0.1622,0.1623,0.1624,0.1636,0.1682,0.1682,0.1768,0.1725,0,0,0,0,0,0,0,0,0,0,0.1676,0.1661,0.1623,0.1624,0.1636,0.1682,0.1682,0.1722,0.1728,0.1757,0,0.1773,0,0.1776,0.1776,0.1777,0,0,0,0.163,0.1657,0.1673,0.1624,0.1637,0.1682,0.1659,0.1725,0.1731,0.1764,0.1774,0.1777,0.1777,0.1777,0.1777,0.1954,0.1955,0,0,0.1627,0.1627,0.1669,0.1677,0.1662,0.1658,0.1661,0.1728,0.1739,0.1775,0.1779,0.1779,0.1778,0.1778,0.1953,0.1954,0,0,0,0.1624,0.1625,0.1639,0.1673,0.1681,0.1659,0.1663,0.1736,0.1742,0.178,0.178,0.1778,0.1779,0.1952,0.1953,0.1938,0,0,0,0.1622,0.1624,0.1638,0.1637,0.168,0.1705,0.1669,0.1737,0.1744,0.1779,0.1778,0.178,0.195,0.1953,0.1936,0.1904,0,0,0,0.1618,0.1623,0.1633,0.1637,0.166,0.1704,0.1713,0.1738,0.1745,0.1777,0.1781,0.1949,0.1952,0.1933,0.1902,0.1913,0,0,0,0.1609,0.1647,0.1633,0.1684,0.1659,0.1724,0.1712,0.1765,0.1798,0.1779,0.1951,0.1953,0.1933,0.1901,0.1912,0.1863,0.1864,0,0,0.1654,0.1653,0.1685,0.1674,0.1733,0.1716,0.1784,0.1818,0.1852,0.1926,0.193,0.1936,0.1902,0.1913,0.2022,0.2018,0,0,0,0.1698,0.1715,0.1736,0.1764,0.1798,0.1811,0.1843,0.1868,0.1938,0.1885,0.1997,0.1977,0.1983,0.1954,0.1953,0.1694,0.1966,0.1966,0.1965,0.1731,0.1751,0.18,0.1826,0.1859,0.189,0.1916,0.1963,0.1986,0.2033,0.201,0.2068,0.2042,0.2039,0.1775,0.2077,0.2077,0.2077,0.2077,0.1791,0.1821,0.1833,0.1881,0.1891,0.1931,0.1982,0.1997,0.2053,0.2065,0.2073,0.1997,0.2035,0.1754,0.2077,0.2077,0.2077,0.2077,0.2077,0.1807,0.1826,0.1845,0.1893,0.191,0.1935,0.1953,0.1989,0.2039,0.2049,0.203,0.2029,0.1739,0.2059,0.2059,0.2059,0.2059,0.2059,0.2059,0.1819,0.1842,0.1871,0.1904,0.1908,0.1913,0.1931,0.1948,0.1978,0.2007,0.2008,0.1737,0.2062,0.2012,0.2058,0.2058,0.2058,0.2058,0.2058,0.1879,0.1864,0.1907,0.1916,0.191,0.1862,0.1889,0.1874,0.1909,0.1912,0.1652,0.1997,0.1991,0.1993,0.1944,0.1969,0.1969,0.1969,0.1969,0.1906,0.1907,0.1935,0.1924,0.1897,0.1838,0.1748,0.1732,0.1621,0.1516,0.1468,0.142,0.1436,0.1393,0.1409,0.1347,0.122,0.1218,0.1217,0.196,0.1954,0.1963,0.1924,0.1872,0.1783,0.1633,0.1486,0.13,0.1159,0.1112,0.1144,0.1048,0.1093,0.1013,0.1055,0.0952,0,0]},{"header":{"parameterUnit":"m.s-1","parameterCategory":2,"la1":30.2992,"la2":30.254,"lo1":-89.0895,"lo2":-89.0443,"dy":0.0025,"dx":0.0025,"nx":19,"ny":19,"refTime":"2026-05-19T03:00:00:Z","depth":"0","parameterNumber":3,"parameterNumberName":"V-component_of_CURRENTS"},"data":[0,0,0,0.0135,0.0136,0.0162,0.0162,0.0183,0.0183,0,0,0,0,0,0,0,0,0,0,0,0.0117,0.0117,0.0135,0.0136,0.0162,0.0162,0.0183,0.0183,0,0,0,0,0,0,0,0,0,0,0,0.0117,0.0117,0.0117,0.0136,0.0162,0.0162,0.0183,0.0164,0,0,0,0,0,0,0,0,0,0,0.0139,0.0122,0.0117,0.0117,0.0137,0.0162,0.0162,0.0163,0.0165,0.0171,0,0.0176,0,0.0189,0.0185,0.0185,0,0,0,0.0126,0.012,0.0137,0.0117,0.0137,0.0162,0.0148,0.0164,0.0166,0.0173,0.0177,0.0178,0.0189,0.0185,0.0186,0.0273,0.0273,0,0,0.0124,0.0113,0.0135,0.0138,0.0146,0.0147,0.0149,0.0165,0.0163,0.0177,0.0179,0.019,0.0186,0.0186,0.0272,0.0273,0,0,0,0.0127,0.0111,0.0127,0.0137,0.0148,0.0148,0.015,0.0162,0.017,0.0179,0.019,0.0186,0.0186,0.0271,0.0272,0.0301,0,0,0,0.0126,0.0114,0.0126,0.0118,0.0148,0.0157,0.0146,0.0168,0.0171,0.019,0.0186,0.0186,0.027,0.0272,0.0298,0.0322,0,0,0,0.0115,0.0113,0.0119,0.0118,0.0136,0.0157,0.0165,0.0169,0.0179,0.0185,0.0187,0.027,0.0272,0.0296,0.0318,0.0424,0,0,0,0.0099,0.0101,0.0118,0.0121,0.0136,0.0159,0.0165,0.0177,0.0183,0.0186,0.0271,0.0272,0.0295,0.0316,0.042,0.0442,0.0461,0,0,0.0092,0.0099,0.0101,0.0118,0.0135,0.0154,0.0189,0.0199,0.0216,0.026,0.0262,0.0299,0.0318,0.0423,0.0542,0.0557,0,0,0,0.0093,0.0096,0.0103,0.0118,0.014,0.0184,0.0197,0.0238,0.0296,0.0231,0.0327,0.0339,0.0404,0.041,0.0423,0.0491,0.028,0.028,0.028,0.0069,0.0085,0.0096,0.0124,0.0146,0.0206,0.0264,0.0329,0.0315,0.0368,0.0381,0.0507,0.0512,0.0523,0.0592,0.0398,0.0398,0.0398,0.0398,0.0066,0.0085,0.0105,0.0123,0.0177,0.0216,0.0335,0.037,0.0503,0.0455,0.0518,0.0462,0.0539,0.0608,0.0401,0.04,0.04,0.04,0.04,0.0067,0.0084,0.0086,0.0124,0.0181,0.0244,0.0385,0.0462,0.0541,0.0605,0.0651,0.065,0.0699,0.0643,0.0643,0.0644,0.0645,0.0645,0.0645,0.0078,0.0085,0.0109,0.014,0.0178,0.0272,0.0429,0.0543,0.0676,0.071,0.0711,0.0762,0.0583,0.0559,0.0654,0.0653,0.0651,0.0651,0.065,0.0109,0.0109,0.0143,0.0173,0.0271,0.0383,0.0501,0.0706,0.0825,0.0896,0.0938,0.079,0.0799,0.0788,0.077,0.0915,0.0915,0.0915,0.0915,0.0135,0.0137,0.0196,0.026,0.0361,0.0453,0.0647,0.0807,0.0994,0.1078,0.1086,0.1019,0.1005,0.1022,0.1006,0.0991,0.1188,0.1189,0.1189,0.0165,0.0177,0.0233,0.0292,0.0405,0.0542,0.0688,0.0839,0.1098,0.1207,0.1187,0.1175,0.1077,0.1049,0.1068,0.1039,0.101,0,0]}],[{"header":{"parameterUnit":"m.s-1","parameterCategory":2,"la1":30.2992,"la2":30.254,"lo1":-89.0895,"lo2":-89.0443,"dy":0.0025,"dx":0.0025,"nx":19,"ny":19,"refTime":"2026-05-19T03:00:00:Z","depth":"2","parameterNumber":2,"parameterNumberName":"U-component_of_CURRENTS"},"data":[0,0,0,0.144,0.1442,0.1529,0.1529,0.161,0.1611,0,0,0,0,0,0,0,0,0,0,0,0.1425,0.1425,0.144,0.1442,0.1529,0.1529,0.161,0.1611,0,0,0,0,0,0,0,0,0,0,0,0.1424,0.1425,0.1426,0.1442,0.1529,0.1529,0.161,0.1555,0,0,0,0,0,0,0,0,0,0,0.1475,0.146,0.1425,0.1426,0.1443,0.1529,0.1529,0.1552,0.1558,0.1559,0,0.158,0,0.1586,0.1615,0.1615,0,0,0,0.1453,0.1456,0.1476,0.1426,0.1443,0.1528,0.1493,0.1556,0.1562,0.1566,0.1581,0.1584,0.1587,0.1615,0.1615,0.1756,0.1757,0,0,0.1448,0.1442,0.1471,0.148,0.1475,0.149,0.1495,0.156,0.1572,0.1581,0.1586,0.1589,0.1615,0.1616,0.1755,0.1756,0,0,0,0.1427,0.1439,0.1458,0.1477,0.1489,0.1492,0.1498,0.1569,0.1575,0.1587,0.159,0.1616,0.1616,0.1754,0.1756,0.1823,0,0,0,0.1425,0.1425,0.1456,0.1454,0.1488,0.1533,0.1506,0.1572,0.1579,0.1589,0.1616,0.1617,0.1753,0.1755,0.1819,0.1807,0,0,0,0.1419,0.1424,0.1437,0.1453,0.1484,0.1532,0.1543,0.1574,0.1579,0.1615,0.1617,0.1752,0.1754,0.1815,0.1801,0.1819,0,0,0,0.1406,0.143,0.1437,0.1462,0.1483,0.1523,0.1543,0.1588,0.1621,0.1616,0.1753,0.1755,0.1814,0.1798,0.1816,0.1754,0.1762,0,0,0.1425,0.1433,0.1445,0.1452,0.1491,0.1511,0.1585,0.1642,0.1666,0.1728,0.1731,0.182,0.1801,0.1818,0.1908,0.1911,0,0,0,0.1442,0.1463,0.147,0.15,0.1519,0.1588,0.1635,0.1683,0.1795,0.1697,0.1856,0.1841,0.185,0.1808,0.1812,0.1768,0.1768,0.1768,0.1767,0.1492,0.1495,0.153,0.1556,0.1587,0.1657,0.1723,0.181,0.1824,0.1911,0.1925,0.2018,0.198,0.198,0.1979,0.198,0.198,0.198,0.1981,0.1543,0.1569,0.1592,0.1639,0.1694,0.177,0.1856,0.1906,0.2014,0.2024,0.203,0.1917,0.1987,0.1987,0.1986,0.1985,0.1984,0.1984,0.1983,0.1591,0.16,0.1647,0.1715,0.1804,0.1862,0.1924,0.2004,0.2061,0.2093,0.2038,0.2036,0.2008,0.2114,0.2114,0.2114,0.2114,0.2114,0.2114,0.162,0.1655,0.1711,0.1784,0.1839,0.1904,0.1981,0.2002,0.205,0.2082,0.2081,0.2061,0.2057,0.2016,0.2115,0.2115,0.2115,0.2115,0.2115,0.165,0.1674,0.1746,0.1802,0.1881,0.1882,0.1936,0.1952,0.2001,0.2001,0.2069,0.2069,0.2024,0.2021,0.1979,0.2063,0.2063,0.2063,0.2063,0.1662,0.1676,0.1764,0.182,0.1854,0.1864,0.1794,0.1675,0.1729,0.1664,0.168,0.1627,0.1641,0.157,0.1576,0.1523,0.1488,0.1486,0.1484,0.1665,0.1698,0.1751,0.181,0.1841,0.1804,0.1686,0.1312,0.1102,0.1448,0.144,0.2051,0.202,0.2023,0.1949,0.1946,0.1875,0,0]},{"header":{"parameterUnit":"m.s-1","parameterCategory":2,"la1":30.2992,"la2":30.254,"lo1":-89.0895,"lo2":-89.0443,"dy":0.0025,"dx":0.0025,"nx":19,"ny":19,"refTime":"2026-05-19T03:00:00:Z","depth":"2","parameterNumber":3,"parameterNumberName":"V-component_of_CURRENTS"},"data":[0,0,0,-0.0539,-0.054,-0.0524,-0.0523,-0.0461,-0.0461,0,0,0,0,0,0,0,0,0,0,0,-0.0528,-0.0528,-0.0539,-0.054,-0.0524,-0.0523,-0.0461,-0.0461,0,0,0,0,0,0,0,0,0,0,0,-0.0527,-0.0528,-0.0528,-0.054,-0.0524,-0.0523,-0.0461,-0.0475,0,0,0,0,0,0,0,0,0,0,-0.0492,-0.0498,-0.0528,-0.0528,-0.0541,-0.0524,-0.0523,-0.0476,-0.0474,-0.0469,0,-0.0481,0,-0.0494,-0.0459,-0.0459,0,0,0,-0.0503,-0.05,-0.0509,-0.0528,-0.0541,-0.0524,-0.0521,-0.0475,-0.0473,-0.0466,-0.048,-0.0478,-0.0493,-0.0459,-0.0459,-0.0496,-0.0497,0,0,-0.0504,-0.0506,-0.051,-0.0508,-0.0556,-0.0522,-0.0521,-0.0474,-0.0471,-0.048,-0.0477,-0.0492,-0.0459,-0.0459,-0.0496,-0.0497,0,0,0,-0.0532,-0.0507,-0.0516,-0.051,-0.0524,-0.0522,-0.0521,-0.0472,-0.048,-0.0477,-0.0491,-0.0459,-0.0458,-0.0495,-0.0496,-0.0463,0,0,0,-0.053,-0.0527,-0.0517,-0.0516,-0.0526,-0.0505,-0.0521,-0.0482,-0.0479,-0.0491,-0.0459,-0.0458,-0.0494,-0.0496,-0.0462,-0.041,0,0,0,-0.0525,-0.0526,-0.0532,-0.0516,-0.053,-0.0507,-0.0509,-0.0481,-0.0489,-0.0459,-0.0458,-0.0494,-0.0495,-0.0461,-0.0411,-0.0311,0,0,0,-0.0514,-0.054,-0.0532,-0.0561,-0.053,-0.0563,-0.0509,-0.0528,-0.0514,-0.0458,-0.0495,-0.0496,-0.0461,-0.0412,-0.0314,-0.0092,-0.0064,0,0,-0.0544,-0.0544,-0.0561,-0.0555,-0.0589,-0.0561,-0.0583,-0.0548,-0.0528,-0.0499,-0.05,-0.0462,-0.0411,-0.0312,-0.0175,-0.0144,0,0,0,-0.0569,-0.0578,-0.0589,-0.0603,-0.0622,-0.0603,-0.0598,-0.0575,-0.0529,-0.0533,-0.0501,-0.047,-0.0407,-0.0281,-0.0257,-0.0503,-0.0503,-0.0502,-0.0502,-0.0591,-0.0599,-0.0622,-0.0631,-0.0645,-0.0647,-0.061,-0.0578,-0.0573,-0.0556,-0.0473,-0.0414,-0.0285,-0.0263,-0.0528,-0.0528,-0.0528,-0.0528,-0.0528,-0.0619,-0.0627,-0.0629,-0.0652,-0.0644,-0.0657,-0.0598,-0.0571,-0.045,-0.0484,-0.0425,-0.0291,-0.0234,-0.0526,-0.0526,-0.0527,-0.0527,-0.0527,-0.0527,-0.0621,-0.0626,-0.0639,-0.0653,-0.0642,-0.0628,-0.0531,-0.0475,-0.0398,-0.0332,-0.0138,-0.0136,-0.0319,-0.0282,-0.0282,-0.0281,-0.028,-0.028,-0.028,-0.0615,-0.063,-0.0635,-0.064,-0.0634,-0.0575,-0.0451,-0.0354,-0.0149,-0.0054,-0.0052,-0.0329,-0.0337,-0.0305,-0.027,-0.0272,-0.0273,-0.0274,-0.0274,-0.061,-0.0615,-0.0622,-0.062,-0.0579,-0.0438,-0.0346,-0.0038,0.0086,0.0224,0.0119,0.0106,0.0143,0.0125,0.0167,0.0323,0.0323,0.0323,0.0323,-0.0593,-0.06,-0.0588,-0.057,-0.0509,-0.037,-0.0036,0.0278,0.0476,0.0647,0.0632,0.0598,0.0568,0.0623,0.0593,0.0643,0.0923,0.0924,0.0924,-0.0571,-0.0574,-0.0544,-0.0533,-0.0469,-0.0245,0.0142,0.052,0.0882,0.094,0.0654,0.0379,0.0285,0.0255,0.0299,0.0267,0.033,0,0]}],[{"header":{"parameterUnit":"m.s-1","parameterCategory":2,"la1":30.2992,"la2":30.254,"lo1":-89.0895,"lo2":-89.0443,"dy":0.0025,"dx":0.0025,"nx":19,"ny":19,"refTime":"2026-05-19T03:00:00:Z","depth":"4","parameterNumber":2,"parameterNumberName":"U-component_of_CURRENTS"},"data":[0,0,0,-0.0008,-0.0008,0.0034,0.0034,0.0134,0.0135,0,0,0,0,0,0,0,0,0,0,0,-0.0021,-0.0021,-0.0008,-0.0008,0.0034,0.0034,0.0134,0.0135,0,0,0,0,0,0,0,0,0,0,0,-0.0021,-0.0021,-0.0021,-0.0008,0.0034,0.0034,0.0133,0.0095,0,0,0,0,0,0,0,0,0,0,0.005,0.0037,-0.0021,-0.0021,-0.0008,0.0034,0.0034,0.0092,0.0097,0.0123,0,0.0118,0,0.0122,0.0141,0.0141,0,0,0,0.0009,0.0033,0.0029,-0.0021,-0.0007,0.0033,0.002,0.0095,0.01,0.0129,0.0119,0.0123,0.0123,0.0141,0.0142,0.0267,0.0268,0,0,0.0007,0.0007,0.0025,0.0032,-0.001,0.0018,0.0021,0.0098,0.0108,0.012,0.0125,0.0125,0.0142,0.0143,0.0266,0.0267,0,0,0,-0.0011,0.0005,-0.0001,0.0028,0.0028,0.0019,0.0022,0.0105,0.0097,0.0126,0.0126,0.0142,0.0144,0.0266,0.0267,0.0258,0,0,0,-0.0012,-0.0007,-0.0002,0.0001,0.0026,0.0063,0.0027,0.0092,0.0101,0.0126,0.0143,0.0145,0.0265,0.0266,0.0257,0.0256,0,0,0,-0.002,-0.0007,-0.001,0.0001,0.0009,0.0061,0.006,0.0094,0.0101,0.0141,0.0145,0.0264,0.0266,0.0255,0.0254,0.0319,0,0,0,-0.0009,-0.0045,-0.001,-0.0043,0.0008,0.0019,0.006,0.0093,0.0125,0.0143,0.0265,0.0266,0.0255,0.0253,0.0317,0.016,0,0,0,-0.0059,-0.005,-0.0074,-0.0043,-0.0068,0.0016,0.0043,0.0107,0.0164,0.0244,0.0247,0.0257,0.0254,0.0318,0.0257,0,0,0,0,-0.0093,-0.0105,-0.0109,-0.0107,-0.0081,-0.0015,0.0058,0.0111,0.0215,0.0188,0.0293,0.0292,0.0332,0.0237,0.0274,0.0274,0.0274,0.0274,0.0274,-0.0139,-0.0139,-0.0163,-0.0148,-0.012,-0.0018,0.005,0.0155,0.0205,0.0266,0.0311,0.0389,0.0288,0.034,0.034,0.034,0.034,0.034,0.034,-0.0196,-0.0209,-0.0181,-0.0203,-0.013,-0.0071,0.0073,0.0146,0.031,0.0325,0.0366,0.0265,0.034,0.034,0.034,0.034,0.034,0.034,0.034,-0.022,-0.0226,-0.023,-0.0223,-0.0165,-0.0066,0.006,0.0201,0.031,0.0376,0.0346,0.0411,0.0384,0.0438,0.0438,0.0438,0.0438,0.0439,0.0439,-0.0234,-0.0242,-0.0247,-0.0229,-0.0203,-0.0102,0.0095,0.0168,0.0303,0.034,0.0419,0.0423,0.042,0.0393,0.0443,0.0443,0.0442,0.0442,0.0441,-0.0267,-0.0255,-0.027,-0.0259,-0.0197,-0.0129,0.004,0.0149,0.0249,0.0255,0.0323,0.0328,0.0327,0.0328,0.0296,0.0321,0.0319,0.0317,0,-0.0274,-0.0272,-0.0275,-0.0259,-0.0216,-0.0134,-0.0041,0.0037,0.0146,0.0169,0.0232,0.0309,0.0312,0.0307,0.0304,0.0265,0,0,0,-0.0276,-0.0279,-0.0278,-0.0266,-0.0227,-0.0129,-0.0013,0.0017,0.0151,0.0099,0.0272,0.0284,0.0232,0.0457,0.0469,0.0465,0.0423,0,0]},{"header":{"parameterUnit":"m.s-1","parameterCategory":2,"la1":30.2992,"la2":30.254,"lo1":-89.0895,"lo2":-89.0443,"dy":0.0025,"dx":0.0025,"nx":19,"ny":19,"refTime":"2026-05-19T03:00:00:Z","depth":"4","parameterNumber":3,"parameterNumberName":"V-component_of_CURRENTS"},"data":[0,0,0,0.017,0.0172,0.023,0.023,0.0295,0.0296,0,0,0,0,0,0,0,0,0,0,0,0.0144,0.0145,0.017,0.0172,0.023,0.023,0.0295,0.0296,0,0,0,0,0,0,0,0,0,0,0,0.0144,0.0145,0.0145,0.0172,0.023,0.023,0.0295,0.0251,0,0,0,0,0,0,0,0,0,0,0.0194,0.0169,0.0145,0.0145,0.0173,0.023,0.023,0.0249,0.0253,0.027,0,0.0285,0,0.03,0.0301,0.0301,0,0,0,0.0161,0.0165,0.0191,0.0146,0.0173,0.023,0.0201,0.0251,0.0257,0.0276,0.0286,0.0288,0.0301,0.0301,0.0302,0.0442,0.0443,0,0,0.0158,0.0144,0.0187,0.0195,0.0197,0.0199,0.0203,0.0255,0.0258,0.0286,0.029,0.0302,0.0302,0.0303,0.0441,0.0443,0,0,0,0.0156,0.0142,0.0166,0.0192,0.0208,0.0201,0.0205,0.0255,0.0266,0.0291,0.0303,0.0302,0.0303,0.044,0.0442,0.0497,0,0,0,0.0154,0.0142,0.0165,0.0156,0.0207,0.0232,0.0204,0.0262,0.0269,0.0303,0.0302,0.0304,0.0439,0.0441,0.0493,0.0515,0,0,0,0.014,0.014,0.0152,0.0155,0.0187,0.0232,0.0245,0.0264,0.0277,0.0301,0.0304,0.0439,0.0441,0.049,0.0509,0.0544,0,0,0,0.0117,0.0176,0.0151,0.0219,0.0187,0.0294,0.0245,0.0309,0.0338,0.0303,0.0439,0.0442,0.0489,0.0506,0.0541,0.0404,0,0,0,0.0189,0.0183,0.0227,0.0208,0.0306,0.0284,0.0385,0.0386,0.0376,0.0417,0.042,0.0495,0.0509,0.0544,0.054,0,0,0,0,0.0249,0.0273,0.0304,0.0343,0.0401,0.0429,0.045,0.0458,0.0486,0.0405,0.0526,0.0534,0.0553,0.0466,0.0453,0.0452,0.0452,0.0452,0.0452,0.0302,0.0331,0.0398,0.0439,0.0493,0.0542,0.0566,0.0576,0.0575,0.0596,0.0602,0.0698,0.0611,0.0629,0.063,0.063,0.063,0.063,0.0631,0.0376,0.0403,0.0432,0.0512,0.0547,0.0629,0.0674,0.0671,0.0719,0.0691,0.0707,0.056,0.0637,0.0636,0.0635,0.0634,0.0633,0.0633,0.0633,0.038,0.0398,0.0442,0.0519,0.0608,0.068,0.0765,0.0791,0.0773,0.079,0.0705,0.0741,0.0708,0.0814,0.0814,0.0814,0.0814,0.0815,0.0815,0.0353,0.0398,0.0452,0.0542,0.0613,0.0728,0.0839,0.0845,0.0836,0.0763,0.0824,0.0759,0.0753,0.072,0.0819,0.0818,0.0818,0.0817,0.0817,0.0362,0.037,0.0449,0.0516,0.0672,0.0737,0.087,0.0839,0.0836,0.0747,0.0734,0.0737,0.0701,0.0696,0.0658,0.0744,0.0742,0.0741,0,0.0343,0.036,0.0455,0.0556,0.0648,0.075,0.0747,0.0756,0.07,0.0683,0.0791,0.078,0.0779,0.0739,0.0733,0.0689,0,0,0,0.0335,0.0369,0.0438,0.0546,0.0642,0.0666,0.0743,0.0706,0.0737,0.0646,0.0706,0.0715,0.0753,0.0832,0.0783,0.0776,0.0719,0,0]}]]